Regional Weather Roundup
Issued by NWS

Home | Current Version | Previous Version | Text Only | Print | Product List | Glossary Off
Versions: 1 2 3 4 5 6 7 8 9 10 11 12 13 14 15 16 17 18 19 20 21 22 23 24 25 26 27 28 29 30 31 32 33 34 35 36 37 38 39 40 41 42 43 44 45 46 47 48 49 50

358
ASUS43 KIND 291759
RWRIN

WEATHER ROUNDUP FOR INDIANA
NATIONAL WEATHER SERVICE INDIANAPOLIS IN
200 PM EDT MON AUG 29 2016

NOTE: "FAIR" INDICATES FEW OR NO CLOUDS BELOW 12,000 FEET WITH NO
SIGNIFICANT WEATHER AND/OR OBSTRUCTIONS TO VISIBILITY.

* - STATION DOES NOT REPORT WEATHER SUCH AS PRECIPITATION OR FOG.

+ - STATION NOT QUALITY CONTROLLED BY THE NATIONAL WEATHER SERVICE.
    USE DATA WITH CAUTION...ESPECIALLY DEWPOINT AND RELATIVE
    HUMIDITY OBSERVATIONS.

INZ001>003-010>013-019-020-291900-
NORTHWEST INDIANA

CITY           SKY/WX    TMP DP  RH WIND       PRES   REMARKS
GARY /AIRPORT/ PTSUNNY   86  68  54 SE7       30.25S
KNOX *+        SUNNY     82  46  28 SE3       30.24F
MONTICELLO +   SUNNY     85  69  58 CALM      30.23F
6HR MIN TEMP:  69; 6HR MAX TEMP:  85;


$$

LMZ046-743>745-291900-
SOUTHERN LAKE MICHIGAN

STATION/POSITION TIME  TEMP    WIND        PRES    WAVE
                       AIR SEA DIR/SP/G            HT
                 (UTC) (F)     (DEG/KT/KT) (MB)    (FT)
BURNS HARBOR     1700   84     190/  6/ 10 1024.4F
MICHIGAN CITY    1700   82     130/  5/  7   N/A
5NW MICH CITY    1700   78 76  160/  2/  4   N/A     1

$$

INZ004-005-014>016-021>024-291900-
NORTH CENTRAL INDIANA

CITY           SKY/WX    TMP DP  RH WIND       PRES   REMARKS
ELKHART        PTSUNNY  N/A N/A N/A SE3       30.25F
GOSHEN         PTSUNNY   84  71  65 S6        30.26F
6HR MIN TEMP:  69; 6HR MAX TEMP:  85;

PERU/GRISSOM   MOSUNNY   84  72  67 E6        30.24F
6HR MIN TEMP:  70; 6HR MAX TEMP:  84;

SOUTH BEND     MOSUNNY   84  71  65 S5        30.26F
6HR MIN TEMP:  68; 6HR MAX TEMP:  84;


$$

INZ006>009-017-018-025>027-291900-
NORTHEAST INDIANA

CITY           SKY/WX    TMP DP  RH WIND       PRES   REMARKS
ANGOLA *+      SUNNY     82  72  69 VRB6      30.28S
FORT WAYNE     PTSUNNY   83  71  67 E6        30.27F
6HR MIN TEMP:  69; 6HR MAX TEMP:  83;


$$

INZ028-029-035-036-043>045-051>053-291900-
WEST CENTRAL INDIANA

CITY           SKY/WX    TMP DP  RH WIND       PRES   REMARKS
CRAWFORDSVL +  SUNNY     83  73  70 SE5       30.24F
6HR MIN TEMP:  67; 6HR MAX TEMP:  83;

LAFAYETTE      SUNNY     84  73  69 CALM      30.22F
6HR MIN TEMP:  69; 6HR MAX TEMP:  85;

TERRE HAUTE    SUNNY     88  67  49 VRB5      30.22F
6HR MIN TEMP:  70; 6HR MAX TEMP:  88;


$$

INZ030>032-037>040-046>048-054>057-064-065-291900-
CENTRAL INDIANA

CITY           SKY/WX    TMP DP  RH WIND       PRES   REMARKS
ANDERSON       MOSUNNY   84  72  65 CALM      30.25F
COLUMBUS       SUNNY     84  72  65 CALM      30.23F
INDIANAPOLIS   MOSUNNY   87  69  54 CALM      30.22F
6HR MIN TEMP:  71; 6HR MAX TEMP:  87;

-EAGLE CREEK   SUNNY     87  67  51 CALM      30.22F
6HR MIN TEMP:  71; 6HR MAX TEMP:  87;

KOKOMO *+      MOSUNNY   84  73  70 E6        30.24F
6HR MIN TEMP:  70; 6HR MAX TEMP:  84;

MT COMFORT *+  SUNNY     84  70  61 S3        30.24F
SHELBYVILLE    SUNNY     88  69  53 E5        30.22F
6HR MIN TEMP:  69; 6HR MAX TEMP:  88;


$$

INZ033-034-041-042-049-050-058-059-291900-
EAST CENTRAL INDIANA

CITY           SKY/WX    TMP DP  RH WIND       PRES   REMARKS
MUNCIE         MOSUNNY   86  72  62 VRB6      30.25F
6HR MIN TEMP:  70; 6HR MAX TEMP:  86;


$$

INZ060-061-067>069-081>083-085>088-291900-
SOUTHWEST INDIANA

CITY           SKY/WX    TMP DP  RH WIND       PRES   REMARKS
EVANSVILLE     SUNNY     90  68  48 E7        30.19F
6HR MIN TEMP:  71; 6HR MAX TEMP:  90;

HUNTINGBURG *+ SUNNY     90  72  55 N6        30.20S HX  96
6HR MIN TEMP:  70; 6HR MAX TEMP:  90;


$$

INZ062-063-066-070>080-084-089>092-291900-
SOUTH CENTRAL AND SOUTHEAST INDIANA

CITY           SKY/WX    TMP DP  RH WIND       PRES   REMARKS
BLOOMINGTON    SUNNY     88  67  49 CALM      30.22F
6HR MIN TEMP:  71; 6HR MAX TEMP:  88;

MADISON *+     SUNNY     86  70  58 N3        30.24F

$$





USA.gov is the U.S. government's official web portal to all federal, state and local government web resources and services.